Home   Weather   Puerto Vallarta   Past weeks

Flag for Mexico Past Weather in Puerto Vallarta, Jalisco, Mexico — Yesterday and Last 2 Weeks

Now
77 °F

Partly sunny.


Feels Like: 78 °F
Forecast: 75 / 86 °F
Wind: No wind

Location: Puerto Vallarta / Lic

Current Time: Jun 22, 2017 at 9:20:04 am

Latest Report: Jun 22, 2017 at 7:48 am


Visibility: 7 mi

Pressure: 29.85 "Hg

Humidity: 100%

Dew Point: 77 °F

Location of Puerto VallartaLocation

Past Weather in Puerto Vallarta — Graph

°F

Puerto Vallarta Temperature Yesterday

Maximum temperature yesterday: 86 °F (at 12:50 pm)
Minimum temperature yesterday: 77 °F (at 10:48 pm)
Average temperature yesterday: 82 °F

High & Low Weather Summary for the Past Weeks

 TemperatureHumidityPressure
High91 °F (Jun 17, 2:46 pm)100% (Jun 8, 1:45 am)29.94 "Hg (Jun 8, 1:45 am)
Low75 °F (Jun 7, 7:44 am)63% (Jun 17, 2:46 pm)29.65 "Hg (Jun 18, 5:48 pm)
Average81 °F87%29.82 "Hg
* Reported Jun 7 7:44 am — Jun 22 7:48 am, Puerto Vallarta. Weather by CustomWeather, © 2017

Note: Actual official high and low records may vary slightly from our data, if they occured in-between our weather recording intervals... More about our weather records

Advertising

Puerto Vallarta Weather History for the Previous 24 Hours

Scroll right to see more
 ConditionsComfort  
Time TempWeatherWind HumidityBarometerVisibility
7:48 am
Thu, Jun 22
77 °FPartly sunny.No wind100%29.85 "Hg7 mi
6:50 am77 °FOvercast.No wind100%29.83 "Hg6 mi
5:46 am77 °FOvercast.No wind100%29.84 "Hg6 mi
4:43 am77 °FOvercast.No wind100%29.84 "Hg8 mi
3:47 am77 °FMostly cloudy.No wind100%29.83 "Hg6 mi
3:38 am77 °FMostly cloudy.No wind100%29.84 "Hg6 mi
2:46 am77 °FDrizzle. Overcast.No wind100%29.86 "Hg1 mi
1:47 am77 °FDrizzle. Overcast.No wind100%29.87 "Hg3 mi
12:47 am77 °FOvercast.No wind100%29.86 "Hg8 mi
12:17 am79 °FOvercast.No wind100%29.86 "Hg8 mi
11:45 pm
Wed, Jun 21
77 °FDrizzle. Mostly cloudy.5 mph100%29.85 "Hg6 mi
10:48 pm77 °FDrizzle. Overcast.7 mph100%29.83 "Hg6 mi
10:33 pm79 °FDrizzle. Mostly cloudy.7 mph100%29.83 "Hg6 mi
9:44 pm81 °FOvercast.7 mph89%29.80 "Hg10 mi
8:47 pm81 °FOvercast.5 mph89%29.80 "Hg10 mi
7:44 pm81 °FOvercast.7 mph84%29.78 "Hg10 mi
6:49 pm82 °FOvercast.9 mph79%29.75 "Hg10 mi
5:47 pm82 °FOvercast.9 mph84%29.76 "Hg10 mi
4:47 pm84 °FMostly cloudy.13 mph79%29.77 "Hg10 mi
3:55 pm84 °FBroken clouds.13 mph79%29.77 "Hg12 mi
2:53 pm86 °FBroken clouds.14 mph75%29.79 "Hg12 mi
1:45 pm84 °FScattered clouds.12 mph79%29.80 "Hg10 mi
12:50 pm86 °FBroken clouds.13 mph75%29.81 "Hg10 mi
11:44 am84 °FPartly sunny.7 mph79%29.83 "Hg10 mi
10:46 am84 °FBroken clouds.5 mph79%29.82 "Hg10 mi
9:43 am82 °FBroken clouds.No wind84%29.82 "Hg10 mi
Weather by CustomWeather, © 2017

See weather overviewHow to use our weather pages